{"data":{"norad_id":56724,"intl_designator":"2023-068Q","name":"ONEWEB-0703","alt_names":[],"object_type":"PAYLOAD","status":"ACTIVE","operator":null,"country":"UK","launch_date":"2023-05-20","launch_site_code":"AFWTR","launch_vehicle":null,"mission":null,"orbit_class":"UNKNOWN","rcs_meters":null,"size_class":null,"mass_kg":null,"dimensions":null,"purposes":["comms"],"wikipedia_slug":null,"has_3d_model":false,"image_url":null,"decayed_at":null,"tle_current":{"epoch":"2026-05-25T01:27:28.031040Z","epoch_age_seconds":69568,"freshness":"FRESH","line1":"1 56724U 23068Q   26145.06074110 -.00000062  00000+0 -19855-3 0  9990","line2":"2 56724  87.8988 263.8115 0001908  73.7471 286.3869 13.15547432146218","mean_motion":13.15547432,"eccentricity":0.0001908,"inclination_deg":87.8988,"raan_deg":263.8115,"arg_perigee_deg":73.7471,"mean_anomaly_deg":286.3869,"bstar":-0.00019855,"rev_number":14621,"period_min":109.4601353758,"perigee_km":1200.3288146935,"apogee_km":1203.2213091363,"semimajor_km":7579.9120619149,"source":"CELESTRAK","updated_at":"2026-05-25T13:38:22.747210Z"}}}